TimeCDT,TemperatureF,Dew PointF,Humidity,Sea Level PressureIn,VisibilityMPH,Wind Direction,Wind SpeedMPH,Gust SpeedMPH,PrecipitationIn,Events,Conditions,WindDirDegrees,DateUTC
12:13 AM,17.6,10.4,73,30.07,10.0,North,6.9,-,N/A,,Clear,360,2013-03-23 05:13:00
12:33 AM,17.6,10.4,73,30.07,10.0,North,4.6,-,N/A,,Scattered Clouds,360,2013-03-23 05:33:00
12:53 AM,17.6,10.4,73,30.07,10.0,North,4.6,-,N/A,,Clear,350,2013-03-23 05:53:00
1:14 AM,17.6,10.4,73,30.08,10.0,NNW,3.5,-,N/A,,Clear,330,2013-03-23 06:14:00
1:33 AM,15.8,8.6,73,30.08,10.0,WNW,5.8,-,N/A,,Clear,290,2013-03-23 06:33:00
1:53 AM,15.8,8.6,73,30.09,10.0,WNW,8.1,-,N/A,,Clear,300,2013-03-23 06:53:00
2:13 AM,17.6,8.6,68,30.09,10.0,NW,5.8,-,N/A,,Clear,320,2013-03-23 07:13:00
2:33 AM,15.8,8.6,73,30.07,10.0,NW,4.6,-,N/A,,Clear,310,2013-03-23 07:33:00
2:53 AM,15.8,8.6,73,30.08,10.0,West,4.6,-,N/A,,Clear,280,2013-03-23 07:53:00
3:33 AM,15.8,8.6,73,30.10,10.0,NW,6.9,-,N/A,,Clear,310,2013-03-23 08:33:00
3:53 AM,14.0,8.6,79,30.10,10.0,NW,6.9,-,N/A,,Clear,320,2013-03-23 08:53:00
4:14 AM,12.2,6.8,79,30.10,10.0,West,4.6,-,N/A,,Clear,280,2013-03-23 09:14:00
4:53 AM,8.6,6.8,92,30.10,10.0,West,5.8,-,N/A,,Scattered Clouds,260,2013-03-23 09:53:00
5:14 AM,10.4,6.8,85,30.10,10.0,West,4.6,-,N/A,,Scattered Clouds,270,2013-03-23 10:14:00
5:53 AM,8.6,6.8,92,30.10,10.0,Calm,Calm,-,N/A,,Overcast,0,2013-03-23 10:53:00
6:14 AM,10.4,6.8,85,30.10,10.0,NW,5.8,-,N/A,,Scattered Clouds,310,2013-03-23 11:14:00
6:33 AM,10.4,6.8,85,30.10,10.0,NW,6.9,-,N/A,,Mostly Cloudy,310,2013-03-23 11:33:00
6:53 AM,12.2,6.8,79,30.10,10.0,NNW,3.5,-,N/A,,Overcast,330,2013-03-23 11:53:00
7:14 AM,12.2,8.6,85,30.11,10.0,NNW,4.6,-,N/A,,Overcast,330,2013-03-23 12:14:00
7:33 AM,12.2,8.6,85,30.12,10.0,WNW,4.6,-,N/A,,Overcast,300,2013-03-23 12:33:00
7:53 AM,14.0,8.6,79,30.12,10.0,NW,6.9,-,N/A,,Overcast,310,2013-03-23 12:53:00
8:13 AM,14.0,8.6,79,30.12,10.0,WNW,9.2,-,N/A,,Overcast,300,2013-03-23 13:13:00
8:33 AM,15.8,10.4,79,30.12,10.0,NW,6.9,-,N/A,,Overcast,310,2013-03-23 13:33:00
8:54 AM,15.8,10.4,79,30.13,10.0,NW,8.1,-,N/A,,Overcast,310,2013-03-23 13:54:00
9:13 AM,17.6,10.4,73,30.13,10.0,WNW,5.8,-,N/A,,Overcast,300,2013-03-23 14:13:00
9:33 AM,19.4,12.2,74,30.15,10.0,West,5.8,-,N/A,,Overcast,280,2013-03-23 14:33:00
9:54 AM,19.4,12.2,74,30.15,10.0,West,6.9,-,N/A,,Mostly Cloudy,260,2013-03-23 14:54:00
10:13 AM,19.4,12.2,74,30.13,10.0,WNW,8.1,-,N/A,,Overcast,290,2013-03-23 15:13:00
10:33 AM,21.2,12.2,68,30.12,10.0,NW,6.9,-,N/A,,Scattered Clouds,310,2013-03-23 15:33:00
10:53 AM,24.8,15.8,69,30.13,10.0,NW,8.1,-,N/A,,Clear,310,2013-03-23 15:53:00
11:13 AM,24.8,15.8,69,30.13,10.0,WNW,10.4,-,N/A,,Clear,300,2013-03-23 16:13:00
11:33 AM,26.6,17.6,69,30.13,10.0,NW,9.2,-,N/A,,Clear,310,2013-03-23 16:33:00
11:53 AM,26.6,17.6,69,30.13,10.0,WNW,9.2,-,N/A,,Clear,300,2013-03-23 16:53:00
12:13 PM,28.4,17.6,64,30.14,10.0,WNW,8.1,-,N/A,,Clear,300,2013-03-23 17:13:00
12:33 PM,28.4,19.4,69,30.13,10.0,WNW,9.2,-,N/A,,Clear,290,2013-03-23 17:33:00
12:53 PM,28.4,19.4,69,30.13,10.0,WNW,8.1,-,N/A,,Clear,290,2013-03-23 17:53:00
1:13 PM,28.4,17.6,64,30.13,10.0,West,6.9,-,N/A,,Clear,280,2013-03-23 18:13:00
1:34 PM,28.4,19.4,69,30.13,10.0,WNW,5.8,-,N/A,,Clear,300,2013-03-23 18:34:00
1:53 PM,28.4,19.4,69,30.12,10.0,WNW,6.9,-,N/A,,Clear,290,2013-03-23 18:53:00
2:13 PM,28.4,19.4,69,30.12,10.0,WNW,6.9,-,N/A,,Clear,290,2013-03-23 19:13:00
2:34 PM,30.2,19.4,64,30.11,10.0,WNW,5.8,-,N/A,,Clear,290,2013-03-23 19:34:00
2:53 PM,30.2,19.4,64,30.11,10.0,West,6.9,-,N/A,,Clear,270,2013-03-23 19:53:00
3:13 PM,30.2,19.4,64,30.10,10.0,WNW,6.9,-,N/A,,Clear,290,2013-03-23 20:13:00
3:34 PM,28.4,19.4,69,30.10,10.0,West,6.9,-,N/A,,Clear,280,2013-03-23 20:34:00
3:53 PM,28.4,21.2,74,30.10,10.0,WSW,9.2,-,N/A,,Clear,250,2013-03-23 20:53:00
4:13 PM,26.6,19.4,74,30.10,10.0,West,9.2,-,N/A,,Clear,280,2013-03-23 21:13:00
4:34 PM,26.6,19.4,74,30.10,10.0,West,10.4,-,N/A,,Clear,270,2013-03-23 21:34:00
4:53 PM,26.6,19.4,74,30.11,10.0,West,9.2,-,N/A,,Clear,270,2013-03-23 21:53:00
5:13 PM,26.6,19.4,74,30.11,10.0,West,10.4,-,N/A,,Clear,280,2013-03-23 22:13:00
5:33 PM,26.6,19.4,74,30.12,10.0,West,9.2,-,N/A,,Clear,270,2013-03-23 22:33:00
5:53 PM,24.8,19.4,80,30.12,10.0,West,11.5,-,N/A,,Clear,280,2013-03-23 22:53:00
6:13 PM,24.8,19.4,80,30.11,10.0,WNW,11.5,-,N/A,,Clear,290,2013-03-23 23:13:00
6:33 PM,23.0,19.4,86,30.12,10.0,West,11.5,-,N/A,,Clear,280,2013-03-23 23:33:00
6:53 PM,23.0,19.4,86,30.12,10.0,West,11.5,-,N/A,,Clear,280,2013-03-23 23:53:00
7:13 PM,23.0,19.4,86,30.13,10.0,West,10.4,-,N/A,,Clear,280,2013-03-24 00:13:00
7:33 PM,21.2,17.6,86,30.13,10.0,WNW,11.5,-,N/A,,Clear,290,2013-03-24 00:33:00
7:53 PM,21.2,17.6,86,30.13,10.0,WNW,10.4,-,N/A,,Clear,290,2013-03-24 00:53:00
8:13 PM,21.2,17.6,86,30.13,10.0,WNW,10.4,-,N/A,,Clear,290,2013-03-24 01:13:00
8:33 PM,21.2,17.6,86,30.13,10.0,WNW,11.5,-,N/A,,Clear,290,2013-03-24 01:33:00
8:53 PM,21.2,17.6,86,30.13,10.0,WNW,10.4,-,N/A,,Clear,290,2013-03-24 01:53:00
9:13 PM,21.2,17.6,86,30.14,10.0,WNW,11.5,-,N/A,,Clear,300,2013-03-24 02:13:00
9:33 PM,19.4,17.6,93,30.14,10.0,WNW,10.4,-,N/A,,Clear,300,2013-03-24 02:33:00
9:53 PM,19.4,17.6,93,30.14,10.0,NW,10.4,-,N/A,,Clear,310,2013-03-24 02:53:00
10:13 PM,19.4,17.6,93,30.13,10.0,NW,11.5,-,N/A,,Clear,310,2013-03-24 03:13:00
10:33 PM,19.4,17.6,93,30.13,10.0,NW,10.4,-,N/A,,Clear,310,2013-03-24 03:33:00
10:54 PM,19.4,15.8,86,30.13,10.0,NW,10.4,-,N/A,,Clear,310,2013-03-24 03:54:00
11:13 PM,19.4,15.8,86,30.12,10.0,NW,10.4,-,N/A,,Clear,320,2013-03-24 04:13:00
11:33 PM,19.4,15.8,86,30.12,10.0,NW,11.5,-,N/A,,Clear,320,2013-03-24 04:33:00
11:54 PM,19.4,15.8,86,30.12,10.0,NNW,9.2,-,N/A,,Clear,330,2013-03-24 04:54:00